F5MAP-5 Weather Reports


Display with metric or nautical units.
time (UTC)temp
F
wind
direction
speed
MPH
gust
MPH
rain 1hr
in
rain 24hr
in
rain mn
in
humidity
%
barometer
mb
20260510045216 52 349 1.0 3.0 0.00 0.00 0.00 86 1010.5
20260510043214 52 355 0.0 3.0 0.00 0.00 0.00 85 1010.7
20260510041214 52 229 0.0 0.0 0.00 0.00 0.00 84 1010.8
20260510040214 53 169 0.0 0.0 0.00 0.00 0.00 83 1010.9
20260510035214 53 169 0.0 0.0 0.00 0.00 0.00 83 1010.8
20260510034213 53 169 0.0 0.0 0.00 0.00 0.00 82 1010.9
20260510033214 53 169 0.0 0.0 0.00 0.00 0.00 82 1010.8
20260510032213 54 169 0.0 0.0 0.00 0.00 0.00 81 1011.0
20260510031213 54 189 0.0 0.0 0.00 0.00 0.00 81 1011.0
20260510030213 54 189 0.0 0.0 0.00 0.00 0.00 81 1011.0
20260510025213 55 189 0.0 0.0 0.00 0.00 0.00 80 1011.0
20260510024213 55 189 0.0 3.0 0.00 0.00 0.00 81 1011.1
20260510023213 55 63 0.0 2.0 0.00 0.00 0.00 80 1010.9
20260510022213 55 61 2.0 3.0 0.00 0.00 0.00 80 1010.9
20260510020212 56 33 2.0 3.0 0.00 0.00 0.00 79 1011.0
20260510014212 56 34 1.0 2.0 0.00 0.00 0.00 78 1011.1
20260510013212 57 55 0.0 0.0 0.00 0.00 0.00 78 1011.1
20260510012212 57 91 0.0 0.0 0.00 0.00 0.00 78 1011.4
20260510011212 57 91 0.0 2.0 0.00 0.00 0.00 78 1011.4
20260510010213 57 17 1.0 3.0 0.00 0.00 0.00 77 1011.3
20260510005212 57 355 1.0 3.0 0.00 0.00 0.00 77 1011.3
20260510002212 58 341 3.0 5.0 0.00 0.00 0.00 76 1011.5
20260510001212 58 336 3.0 6.0 0.00 0.00 0.00 76 1011.6
20260510000212 58 355 3.0 5.0 0.00 0.00 0.00 76 1011.9
20260509235212 58 337 2.0 4.0 0.00 0.00 0.00 75 1012.0
20260509234212 58 349 1.0 4.0 0.00 0.00 0.00 75 1012.1
20260509233212 59 360 2.0 3.0 0.00 0.00 0.00 75 1012.2
20260509232211 59 20 1.0 4.0 0.00 0.00 0.00 74 1012.2
20260509231212 59 26 2.0 5.0 0.00 0.00 0.00 73 1012.2
20260509230211 60 9 0.0 0.0 0.00 0.00 0.00 72 1012.3
20260509225211 60 355 0.0 0.0 0.00 0.00 0.00 72 1012.3
20260509224212 60 19 0.0 0.0 0.00 0.00 0.00 71 1012.4
20260509223212 60 22 1.0 3.0 0.00 0.00 0.00 71 1012.3
20260509222211 60 10 1.0 3.0 0.00 0.00 0.00 70 1012.3
20260509221212 61 24 0.0 2.0 0.00 0.00 0.00 70 1012.4
20260509220212 62 65 0.0 0.0 0.00 0.00 0.00 69 1012.4
20260509215212 62 65 0.0 2.0 0.00 0.00 0.00 68 1012.5
20260509214212 63 30 0.0 1.0 0.00 0.00 0.00 67 1012.5
20260509213212 63 17 0.0 2.0 0.00 0.00 0.00 65 1012.5
20260509212212 63 17 1.0 3.0 0.00 0.00 0.00 64 1012.4
20260509211212 64 28 1.0 4.0 0.00 0.00 0.00 64 1012.5
20260509210212 64 355 3.0 5.0 0.00 0.00 0.00 63 1012.4
20260509205212 64 325 4.0 8.0 0.00 0.00 0.00 63 1012.5
20260509204212 65 328 3.0 5.0 0.00 0.00 0.00 62 1012.5
20260509203211 65 329 3.0 6.0 0.00 0.00 0.00 61 1012.6
20260509202211 65 336 3.0 5.0 0.00 0.00 0.00 60 1012.6
20260509201211 66 344 3.0 6.0 0.00 0.00 0.00 59 1012.5
20260509200212 67 326 3.0 5.0 0.00 0.00 0.00 57 1012.5
20260509194213 68 346 2.0 4.0 0.00 0.00 0.00 55 1012.3
20260509193213 69 5 1.0 3.0 0.00 0.00 0.00 54 1012.3
20260509192213 69 17 1.0 4.0 0.00 0.00 0.00 53 1012.3
20260509191213 70 360 2.0 4.0 0.00 0.00 0.00 52 1012.2
20260509190213 70 22 0.0 3.0 0.00 0.00 0.00 50 1012.3
20260509185213 71 5 1.0 5.0 0.00 0.00 0.00 50 1012.3
20260509184213 71 31 3.0 6.0 0.00 0.00 0.00 49 1012.3
20260509183212 72 59 3.0 6.0 0.00 0.00 0.00 47 1012.3
20260509182213 72 30 3.0 6.0 0.00 0.00 0.00 46 1012.2
20260509181212 73 39 4.0 10.0 0.00 0.00 0.00 45 1012.2
20260509180212 73 28 4.0 10.0 0.00 0.00 0.00 44 1012.1
20260509175212 73 18 3.0 9.0 0.00 0.00 0.00 43 1012.2
20260509174212 74 355 4.0 9.0 0.00 0.00 0.00 41 1012.1
20260509173212 74 18 3.0 8.0 0.00 0.00 0.00 41 1012.1
20260509172213 74 360 4.0 8.0 0.00 0.00 0.00 41 1012.0
20260509171212 74 19 4.0 9.0 0.00 0.00 0.00 41 1012.1
20260509170212 74 10 2.0 6.0 0.00 0.00 0.00 42 1012.0
20260509165211 74 66 3.0 7.0 0.00 0.00 0.00 41 1012.2
20260509164212 74 11 4.0 8.0 0.00 0.00 0.00 42 1012.2
20260509162211 75 47 5.0 10.0 0.00 0.00 0.00 41 1012.4
20260509161212 75 355 2.0 8.0 0.00 0.00 0.00 41 1012.4
20260509160212 75 5 1.0 5.0 0.00 0.00 0.00 40 1012.4
20260509155211 75 56 3.0 8.0 0.00 0.00 0.00 40 1012.5
20260509154211 76 51 4.0 10.0 0.00 0.00 0.00 40 1012.6
20260509153211 76 57 4.0 8.0 0.00 0.00 0.00 41 1012.5
20260509152211 76 59 5.0 10.0 0.00 0.00 0.00 40 1012.5
20260509150212 76 82 3.0 8.0 0.00 0.00 0.00 37 1012.6
20260509144211 76 78 1.0 3.0 0.00 0.00 0.00 34 1012.8
20260509143211 76 355 3.0 5.0 0.00 0.00 0.00 33 1013.0
20260509142211 76 11 3.0 5.0 0.00 0.00 0.00 37 1013.2
20260509140210 78 219 2.0 7.0 0.00 0.00 0.00 37 1013.7
20260509135213 78 221 1.0 7.0 0.00 0.00 0.00 38 1013.7
20260509134213 78 9 1.0 4.0 0.00 0.00 0.00 37 1013.9
20260509133213 78 355 3.0 6.0 0.00 0.00 0.00 39 1014.0
20260509132212 77 92 1.0 6.0 0.00 0.00 0.00 40 1014.0
20260509130213 78 341 2.0 9.0 0.00 0.00 0.00 42 1014.2
20260509125212 78 47 4.0 8.0 0.00 0.00 0.00 43 1014.3
20260509124212 78 15 2.0 9.0 0.00 0.00 0.00 44 1014.5
20260509123212 77 79 2.0 4.0 0.00 0.00 0.00 45 1014.5
20260509122212 77 85 4.0 7.0 0.00 0.00 0.00 45 1014.7
20260509121212 77 50 2.0 4.0 0.00 0.00 0.00 48 1014.9
20260509120212 76 69 4.0 7.0 0.00 0.00 0.00 48 1015.0
20260509115212 76 79 3.0 7.0 0.00 0.00 0.00 49 1015.0
20260509113212 76 74 2.0 5.0 0.00 0.00 0.00 51 1015.3
20260509112211 75 88 2.0 8.0 0.00 0.00 0.00 49 1015.4
20260509111211 74 86 2.0 7.0 0.00 0.00 0.00 50 1015.6
20260509105211 74 339 1.0 6.0 0.00 0.00 0.00 55 1015.9
20260509104211 74 5 2.0 4.0 0.00 0.00 0.00 53 1016.1
20260509103211 73 257 1.0 4.0 0.00 0.00 0.00 55 1016.2
20260509102211 71 342 2.0 4.0 0.00 0.00 0.00 58 1016.3
20260509101211 70 242 3.0 5.0 0.00 0.00 0.00 60 1016.4
20260509100210 69 333 2.0 5.0 0.00 0.00 0.00 60 1016.5
20260509095210 69 205 2.0 7.0 0.00 0.00 0.00 62 1016.6
20260509094210 68 221 2.0 9.0 0.00 0.00 0.00 63 1016.6
20260509093210 67 131 3.0 6.0 0.00 0.00 0.00 63 1016.8
20260509092210 67 259 2.0 4.0 0.00 0.00 0.00 63 1016.9
20260509091210 66 17 1.0 4.0 0.00 0.00 0.00 64 1016.9
20260509090210 65 360 2.0 4.0 0.00 0.00 0.00 65 1017.1
20260509085210 65 24 2.0 4.0 0.00 0.00 0.00 68 1017.1
20260509084210 64 54 2.0 4.0 0.00 0.00 0.00 68 1017.1
20260509083210 63 44 2.0 3.0 0.00 0.00 0.00 70 1017.2
20260509082211 62 85 2.0 6.0 0.00 0.00 0.00 70 1017.2
20260509081215 62 23 3.0 5.0 0.00 0.00 0.00 71 1017.1
20260509080215 61 5 2.0 4.0 0.00 0.00 0.00 72 1017.3
20260509075215 61 44 3.0 6.0 0.00 0.00 0.00 73 1017.2
20260509074215 60 40 3.0 7.0 0.00 0.00 0.00 73 1017.2
20260509072215 59 80 2.0 5.0 0.00 0.00 0.00 76 1017.4
20260509071215 58 110 1.0 4.0 0.00 0.00 0.00 77 1017.4
20260509070215 58 339 2.0 5.0 0.00 0.00 0.00 79 1017.6
20260509064215 57 30 2.0 3.0 0.00 0.00 0.00 83 1017.6
20260509062215 55 39 1.0 4.0 0.00 0.00 0.00 86 1017.3
20260509061214 54 34 1.0 4.0 0.00 0.00 0.00 88 1017.3
20260509060214 53 71 0.0 1.0 0.00 0.00 0.00 88 1017.4
20260509055216 53 38 0.0 0.0 0.00 0.00 0.00 89 1017.3
20260509054215 52 31 0.0 2.0 0.00 0.00 0.00 88 1017.3
20260509053215 52 22 0.0 2.0 0.00 0.00 0.00 88 1017.3
20260509052215 51 221 0.0 0.0 0.00 0.00 0.00 88 1017.3
20260509051215 51 221 0.0 0.0 0.00 0.00 0.00 87 1017.2
20260509050215 50 221 0.0 0.0 0.00 0.00 0.00 86 1017.2